Location: Goudex
(43.3760°N, 0.9543°E)
Time: 08:26:59
(UTC+00:00)

CZ-4B DEB - Pass Details

Date: 20 November 2019
Orbit: 840 x 862 km, 99.1° (Epoch: 13 December)

Event Time Altitude Azimuth Distance (km) Brightness Sun altitude
Rises 05:28:09 0° 12° (NNE) 3,409 7.4 -15.7°
Reaches altitude 10° 05:30:31 10° 11° (N) 2,472 6.6 -15.3°
Maximum altitude 05:35:59 75° 287° (WNW) 879 4.1 -14.3°
Drops below altitude 10° 05:41:27 10° 203° (SSW) 2,467 6.5 -13.4°
Sets 05:43:48 0° 202° (SSW) 3,402 7.3 -13.0°
